Retour au catalogue

SUPERBIRD 7

ActifCommunicationsGEO
NORAD 33274·PAYLOAD·🇯🇵 Japan

Lancé Aug 14, 2008 depuis Guiana Space Centre

Loading…

TLE

FraisSource: Space-Track

Époque: Sep 14, 2026, 12:44 UTC

1 33274U 08038A   26257.53076205 -.00000313  00000-0  00000-0 0  9996
2 33274   2.5854  80.0701 0005774  67.5883 172.9504  1.00272715106629

Suivez SUPERBIRD 7 en temps réel avec AllMySat

Download on the App Store